BOE1Z CYEG-KBFI

Flight info

Callsign BOE1Z
Flight time 1h 24m
Altitude 31000
Route ANDIE Q860 NADPI YDC JAKSN GLASR3
Aircraft B744/H-SDE3FGHIM1M2RWXY/LB1

Departure

Time 2026-04-22 04:16
Airport Edmonton International Airport (CYEG)

Arrival

Time 2026-04-22 05:41
Airport King County International Airport - Boeing Field (KBFI)
Time Latitude Longitude Altitude Speed Heading
2026-04-22 03:57 53.30428 -113.58181 2348 ft 0 kts 44°
2026-04-22 04:06 53.30418 -113.58198 2348 ft 2 kts 44°
2026-04-22 04:06 53.30407 -113.58216 2348 ft 1 kts 44°
2026-04-22 04:07 53.30400 -113.58227 2347 ft 2 kts 40°
2026-04-22 04:07 53.30388 -113.58240 2347 ft 2 kts 21°
2026-04-22 04:07 53.30374 -113.58247 2347 ft 2 kts
2026-04-22 04:07 53.30359 -113.58247 2347 ft 2 kts 351°
2026-04-22 04:08 53.30344 -113.58241 2347 ft 2 kts 336°
2026-04-22 04:08 53.30331 -113.58229 2347 ft 2 kts 320°
2026-04-22 04:08 53.30325 -113.58220 2347 ft 1 kts 313°
2026-04-22 04:08 53.30324 -113.58218 2347 ft 0 kts 314°
2026-04-22 04:10 53.30350 -113.58262 2346 ft 11 kts 314°
2026-04-22 04:11 53.30423 -113.58385 2344 ft 16 kts 315°
2026-04-22 04:11 53.30505 -113.58521 2341 ft 16 kts 315°
2026-04-22 04:11 53.30583 -113.58665 2335 ft 17 kts 292°
2026-04-22 04:11 53.30561 -113.58819 2332 ft 3 kts 221°
2026-04-22 04:12 53.30551 -113.58834 2332 ft 1 kts 221°
2026-04-22 04:12 53.30530 -113.58875 2331 ft 8 kts 244°
2026-04-22 04:12 53.30551 -113.58969 2328 ft 10 kts 310°
2026-04-22 04:12 53.30604 -113.59055 2327 ft 11 kts 319°
2026-04-22 04:13 53.30666 -113.59156 2326 ft 13 kts 315°
2026-04-22 04:13 53.30729 -113.59274 2324 ft 13 kts 294°
2026-04-22 04:13 53.30721 -113.59374 2325 ft 0 kts 232°
2026-04-22 04:13 53.30721 -113.59375 2325 ft 0 kts 232°
2026-04-22 04:14 53.30720 -113.59377 2325 ft 2 kts 231°
2026-04-22 04:14 53.30672 -113.59450 2323 ft 16 kts 218°
2026-04-22 04:14 53.30555 -113.59461 2325 ft 23 kts 145°
2026-04-22 04:14 53.30374 -113.59158 2328 ft 50 kts 131°
2026-04-22 04:15 53.30075 -113.58624 2341 ft 75 kts 129°
2026-04-22 04:15 53.29628 -113.57902 2356 ft 115 kts 133°
2026-04-22 04:15 53.28926 -113.56712 2369 ft 169 kts 133°
2026-04-22 04:15 53.28009 -113.55184 2631 ft 196 kts 133°
2026-04-22 04:16 53.27011 -113.53501 2917 ft 220 kts 132°
2026-04-22 04:16 53.25095 -113.50362 3067 ft 173 kts 131°
2026-04-22 04:16 53.24161 -113.48782 3158 ft 203 kts 130°
2026-04-22 04:17 53.23139 -113.47087 3038 ft 214 kts 143°
2026-04-22 04:17 53.21724 -113.46315 3207 ft 223 kts 167°
2026-04-22 04:17 53.20310 -113.45369 3561 ft 221 kts 137°
2026-04-22 04:17 53.19387 -113.43380 3984 ft 218 kts 118°
2026-04-22 04:18 53.18592 -113.41205 4495 ft 220 kts 121°
2026-04-22 04:18 53.17746 -113.39082 4947 ft 222 kts 121°
2026-04-22 04:18 53.16898 -113.36980 5389 ft 222 kts 123°
2026-04-22 04:18 53.15942 -113.34885 5604 ft 231 kts 130°
2026-04-22 04:19 53.14854 -113.32981 5613 ft 226 kts 135°
2026-04-22 04:19 53.13463 -113.31788 5697 ft 229 kts 166°
2026-04-22 04:19 53.11843 -113.32026 5726 ft 245 kts 198°
2026-04-22 04:19 53.10439 -113.33693 5797 ft 264 kts 227°
2026-04-22 04:20 53.09597 -113.36494 5878 ft 283 kts 255°
2026-04-22 04:20 53.09312 -113.39790 5985 ft 291 kts 261°
2026-04-22 04:20 53.09010 -113.43105 6005 ft 292 kts 257°
2026-04-22 04:20 53.08622 -113.46428 6008 ft 293 kts 257°
2026-04-22 04:21 53.08255 -113.49738 6000 ft 293 kts 258°
2026-04-22 04:21 53.07890 -113.53101 5990 ft 292 kts 257°
2026-04-22 04:21 53.07529 -113.56367 5987 ft 289 kts 258°
2026-04-22 04:21 53.07171 -113.59628 5973 ft 286 kts 258°
2026-04-22 04:22 53.06821 -113.62865 5960 ft 284 kts 258°
2026-04-22 04:22 53.06469 -113.66094 5949 ft 284 kts 257°
2026-04-22 04:22 53.06106 -113.69310 5944 ft 285 kts 257°
2026-04-22 04:22 53.05747 -113.72569 5959 ft 285 kts 257°
2026-04-22 04:23 53.05394 -113.75806 5991 ft 286 kts 257°
2026-04-22 04:23 53.05052 -113.79024 6191 ft 281 kts 257°
2026-04-22 04:23 53.04717 -113.82165 6808 ft 280 kts 257°
2026-04-22 04:23 53.04363 -113.85322 7526 ft 280 kts 256°
2026-04-22 04:24 53.04008 -113.88505 8254 ft 281 kts 255°
2026-04-22 04:24 53.03647 -113.91637 8979 ft 277 kts 255°
2026-04-22 04:24 53.03286 -113.94743 9714 ft 275 kts 255°
2026-04-22 04:24 53.02934 -113.97844 10456 ft 278 kts 256°
2026-04-22 04:25 53.02561 -114.00991 11247 ft 280 kts 256°
2026-04-22 04:25 53.02209 -114.04140 12054 ft 288 kts 258°
2026-04-22 04:25 53.01850 -114.07487 12992 ft 309 kts 259°
2026-04-22 04:25 53.01480 -114.11039 13974 ft 319 kts 259°
2026-04-22 04:26 53.01105 -114.14695 14919 ft 324 kts 259°
2026-04-22 04:26 53.00706 -114.18331 15798 ft 328 kts 259°
2026-04-22 04:26 53.00320 -114.22058 16675 ft 332 kts 259°
2026-04-22 04:26 52.99916 -114.25841 17558 ft 336 kts 259°
2026-04-22 04:27 52.99521 -114.29636 18437 ft 338 kts 259°
2026-04-22 04:27 52.99125 -114.33459 19306 ft 341 kts 259°
2026-04-22 04:27 52.98756 -114.37341 20203 ft 345 kts 261°
2026-04-22 04:27 52.98493 -114.41303 21082 ft 350 kts 264°
2026-04-22 04:28 52.98000 -114.45198 21950 ft 353 kts 247°
2026-04-22 04:28 52.96688 -114.48598 22847 ft 359 kts 229°
2026-04-22 04:28 52.94892 -114.51529 23830 ft 363 kts 228°
2026-04-22 04:28 52.93243 -114.54639 24799 ft 365 kts 232°
2026-04-22 04:29 52.91661 -114.57892 25753 ft 368 kts 233°
2026-04-22 04:29 52.90106 -114.61202 26689 ft 369 kts 233°
2026-04-22 04:29 52.88564 -114.64586 27601 ft 371 kts 234°
2026-04-22 04:29 52.87037 -114.67995 28521 ft 371 kts 233°
2026-04-22 04:30 52.85550 -114.71405 29427 ft 369 kts 234°
2026-04-22 04:30 52.84054 -114.74857 30322 ft 367 kts 234°
2026-04-22 04:30 52.82590 -114.78283 30829 ft 374 kts 234°
2026-04-22 04:30 52.81060 -114.81875 31028 ft 388 kts 234°
2026-04-22 04:31 52.79476 -114.85596 31071 ft 405 kts 234°
2026-04-22 04:31 52.77851 -114.89473 31044 ft 423 kts 234°
2026-04-22 04:31 52.76157 -114.93503 30977 ft 438 kts 234°
2026-04-22 04:32 52.72723 -115.01736 30831 ft 432 kts 235°
2026-04-22 04:32 52.69329 -115.09816 30772 ft 425 kts 235°
2026-04-22 04:33 52.65982 -115.17833 30792 ft 426 kts 235°
2026-04-22 04:33 52.62593 -115.25829 30799 ft 427 kts 235°
2026-04-22 04:34 52.59222 -115.33845 30812 ft 427 kts 235°
2026-04-22 04:34 52.55817 -115.41875 30806 ft 427 kts 235°
2026-04-22 04:35 52.52407 -115.49884 30811 ft 427 kts 235°
2026-04-22 04:35 52.49028 -115.57815 30836 ft 426 kts 235°
2026-04-22 04:36 52.45618 -115.65773 30830 ft 427 kts 234°
2026-04-22 04:36 52.42213 -115.73732 30846 ft 428 kts 234°
2026-04-22 04:37 52.38789 -115.81700 30843 ft 428 kts 234°
2026-04-22 04:37 52.35374 -115.89641 30865 ft 427 kts 234°
2026-04-22 04:38 52.31966 -115.97535 30864 ft 428 kts 233°
2026-04-22 04:38 52.28529 -116.05434 30873 ft 428 kts 234°
2026-04-22 04:39 52.25076 -116.13355 30897 ft 431 kts 234°
2026-04-22 04:39 52.21607 -116.21317 30868 ft 432 kts 233°
2026-04-22 04:40 52.18167 -116.29169 30871 ft 430 kts 234°
2026-04-22 04:40 52.14679 -116.37119 30882 ft 433 kts 234°
2026-04-22 04:41 52.11190 -116.45066 30866 ft 431 kts 233°
2026-04-22 04:41 52.07723 -116.52911 30884 ft 432 kts 233°
2026-04-22 04:42 52.04224 -116.60827 30887 ft 433 kts 233°
2026-04-22 04:42 52.00699 -116.68764 30895 ft 434 kts 233°
2026-04-22 04:43 51.97192 -116.76650 30884 ft 434 kts 233°
2026-04-22 04:43 51.93665 -116.84551 30898 ft 434 kts 233°
2026-04-22 04:44 51.90136 -116.92471 30915 ft 435 kts 233°
2026-04-22 04:44 51.86576 -117.00415 30914 ft 434 kts 233°
2026-04-22 04:45 51.83026 -117.08262 30907 ft 433 kts 233°
2026-04-22 04:45 51.79469 -117.16090 30903 ft 435 kts 233°
2026-04-22 04:46 51.75881 -117.23948 30892 ft 436 kts 233°
2026-04-22 04:46 51.72333 -117.31834 30831 ft 438 kts 233°
2026-04-22 04:46 51.70315 -117.35476 30723 ft 437 kts 220°
2026-04-22 04:47 51.67747 -117.38004 30581 ft 440 kts 204°
2026-04-22 04:47 51.64749 -117.39220 30419 ft 444 kts 188°
2026-04-22 04:47 51.61700 -117.39086 30268 ft 448 kts 179°
2026-04-22 04:47 51.58624 -117.39277 30092 ft 444 kts 194°
2026-04-22 04:48 51.55702 -117.40902 29945 ft 446 kts 210°
2026-04-22 04:48 51.53220 -117.43829 29844 ft 446 kts 226°
2026-04-22 04:48 51.51264 -117.47767 29863 ft 456 kts 233°
2026-04-22 04:49 51.47052 -117.55412 29858 ft 460 kts 225°
2026-04-22 04:49 51.42534 -117.62504 29807 ft 456 kts 224°
2026-04-22 04:50 51.37897 -117.69371 29803 ft 456 kts 222°
2026-04-22 04:50 51.33130 -117.76266 29854 ft 474 kts 222°
2026-04-22 04:51 51.28167 -117.83347 29839 ft 481 kts 221°
2026-04-22 04:51 51.23142 -117.90469 29803 ft 481 kts 220°
2026-04-22 04:52 51.18165 -117.97468 29831 ft 480 kts 221°
2026-04-22 04:52 51.13172 -118.04453 29810 ft 479 kts 220°
2026-04-22 04:53 51.08164 -118.11436 29810 ft 483 kts 221°
2026-04-22 04:53 51.03103 -118.18465 29781 ft 484 kts 221°
2026-04-22 04:54 50.98061 -118.25453 29721 ft 484 kts 221°
2026-04-22 04:54 50.93011 -118.32443 29745 ft 485 kts 220°
2026-04-22 04:55 50.87936 -118.39443 29753 ft 483 kts 221°
2026-04-22 04:55 50.82893 -118.46381 29780 ft 482 kts 221°
2026-04-22 04:56 50.77873 -118.53258 29821 ft 483 kts 221°
2026-04-22 04:56 50.72786 -118.60203 29795 ft 482 kts 220°
2026-04-22 04:57 50.67756 -118.67033 29780 ft 482 kts 219°
2026-04-22 04:57 50.62683 -118.73937 29755 ft 484 kts 220°
2026-04-22 04:58 50.57601 -118.80841 29757 ft 485 kts 220°
2026-04-22 04:58 50.52502 -118.87741 29754 ft 485 kts 220°
2026-04-22 04:59 50.47390 -118.94630 29738 ft 484 kts 220°
2026-04-22 04:59 50.42301 -119.01450 29765 ft 485 kts 219°
2026-04-22 05:00 50.37181 -119.08271 29779 ft 487 kts 220°
2026-04-22 05:00 50.32054 -119.15110 29744 ft 484 kts 219°
2026-04-22 05:01 50.26912 -119.21928 29752 ft 485 kts 219°
2026-04-22 05:01 50.21797 -119.28709 29769 ft 485 kts 219°
2026-04-22 05:02 50.16642 -119.35538 29802 ft 489 kts 220°
2026-04-22 05:02 50.11480 -119.42364 29783 ft 488 kts 220°
2026-04-22 05:03 50.06315 -119.49183 29762 ft 487 kts 220°
2026-04-22 05:03 50.01192 -119.55947 29757 ft 486 kts 219°
2026-04-22 05:04 49.96066 -119.62651 29786 ft 483 kts 220°
2026-04-22 05:04 49.90956 -119.69327 29772 ft 481 kts 219°
2026-04-22 05:05 49.85827 -119.76003 29782 ft 482 kts 219°
2026-04-22 05:05 49.80700 -119.82646 29805 ft 482 kts 219°
2026-04-22 05:06 49.75583 -119.89262 29803 ft 483 kts 219°
2026-04-22 05:06 49.70425 -119.95923 29798 ft 482 kts 219°
2026-04-22 05:07 49.65303 -120.02525 29795 ft 481 kts 219°
2026-04-22 05:07 49.60140 -120.09119 29801 ft 483 kts 219°
2026-04-22 05:08 49.54979 -120.15717 29798 ft 484 kts 218°
2026-04-22 05:08 49.49824 -120.22254 29790 ft 483 kts 218°
2026-04-22 05:09 49.44619 -120.28788 29791 ft 484 kts 219°
2026-04-22 05:09 49.39498 -120.35406 29792 ft 483 kts 219°
2026-04-22 05:10 49.34667 -120.42473 29733 ft 480 kts 216°
2026-04-22 05:10 49.31779 -120.44969 29753 ft 475 kts 202°
2026-04-22 05:10 49.28762 -120.46896 29805 ft 476 kts 204°
2026-04-22 05:11 49.22925 -120.51547 29823 ft 474 kts 207°
2026-04-22 05:11 49.17175 -120.56474 29818 ft 472 kts 208°
2026-04-22 05:12 49.11522 -120.61478 29823 ft 472 kts 209°
2026-04-22 05:12 49.05876 -120.66538 29801 ft 472 kts 209°
2026-04-22 05:13 49.00267 -120.71577 29821 ft 473 kts 208°
2026-04-22 05:13 48.94583 -120.76698 29808 ft 473 kts 208°
2026-04-22 05:13 48.91829 -120.79170 29773 ft 457 kts 208°
2026-04-22 05:14 48.89171 -120.81544 29626 ft 428 kts 208°
2026-04-22 05:14 48.86653 -120.83788 29301 ft 416 kts 208°
2026-04-22 05:14 48.84184 -120.85967 28875 ft 412 kts 208°
2026-04-22 05:14 48.81707 -120.88168 28373 ft 410 kts 208°
2026-04-22 05:15 48.79270 -120.90361 27876 ft 408 kts 208°
2026-04-22 05:15 48.76857 -120.92516 27393 ft 406 kts 208°
2026-04-22 05:15 48.74424 -120.94713 26879 ft 404 kts 209°
2026-04-22 05:15 48.72024 -120.96871 26385 ft 401 kts 209°
2026-04-22 05:16 48.69609 -120.99049 25884 ft 399 kts 209°
2026-04-22 05:16 48.67244 -121.01164 25398 ft 397 kts 209°
2026-04-22 05:16 48.64861 -121.03316 24898 ft 395 kts 209°
2026-04-22 05:16 48.62522 -121.05418 24405 ft 392 kts 210°
2026-04-22 05:17 48.60202 -121.07496 23916 ft 389 kts 210°
2026-04-22 05:17 48.57856 -121.09608 23423 ft 387 kts 210°
2026-04-22 05:17 48.55559 -121.11669 22951 ft 385 kts 210°
2026-04-22 05:17 48.53262 -121.13740 22481 ft 382 kts 210°
2026-04-22 05:18 48.48746 -121.17770 21539 ft 375 kts 210°
2026-04-22 05:18 48.46508 -121.19752 21049 ft 372 kts 210°
2026-04-22 05:18 48.44273 -121.21716 20581 ft 370 kts 210°
2026-04-22 05:19 48.42097 -121.23646 20119 ft 368 kts 209°
2026-04-22 05:19 48.39881 -121.25586 19633 ft 366 kts 209°
2026-04-22 05:19 48.37700 -121.27486 19171 ft 364 kts 209°
2026-04-22 05:19 48.35526 -121.29391 18720 ft 361 kts 209°
2026-04-22 05:20 48.33372 -121.31276 18339 ft 357 kts 209°
2026-04-22 05:20 48.31242 -121.33138 18023 ft 353 kts 209°
2026-04-22 05:20 48.29143 -121.34979 17729 ft 350 kts 209°
2026-04-22 05:20 48.27056 -121.36793 17444 ft 350 kts 208°
2026-04-22 05:21 48.24932 -121.38627 17152 ft 351 kts 209°
2026-04-22 05:21 48.22812 -121.40463 16866 ft 353 kts 209°
2026-04-22 05:21 48.20686 -121.42294 16577 ft 354 kts 209°
2026-04-22 05:21 48.18587 -121.44124 16287 ft 353 kts 209°
2026-04-22 05:22 48.16454 -121.45969 15994 ft 352 kts 209°
2026-04-22 05:22 48.14350 -121.47806 15717 ft 350 kts 209°
2026-04-22 05:22 48.12269 -121.49616 15428 ft 348 kts 208°
2026-04-22 05:22 48.10189 -121.51411 15135 ft 346 kts 208°
2026-04-22 05:23 48.08108 -121.53203 14839 ft 345 kts 208°
2026-04-22 05:23 48.06049 -121.54967 14546 ft 344 kts 208°
2026-04-22 05:23 48.03968 -121.56757 14253 ft 344 kts 208°
2026-04-22 05:23 48.01918 -121.58515 13970 ft 344 kts 208°
2026-04-22 05:24 47.99823 -121.60260 13670 ft 344 kts 207°
2026-04-22 05:24 47.97736 -121.62009 13366 ft 344 kts 208°
2026-04-22 05:24 47.95707 -121.63752 13063 ft 337 kts 209°
2026-04-22 05:24 47.93726 -121.65493 12732 ft 326 kts 209°
2026-04-22 05:25 47.91794 -121.67243 12372 ft 317 kts 210°
2026-04-22 05:25 47.89977 -121.68966 12027 ft 310 kts 212°
2026-04-22 05:25 47.88242 -121.70824 11646 ft 303 kts 220°
2026-04-22 05:25 47.86721 -121.72894 11324 ft 295 kts 222°
2026-04-22 05:26 47.85224 -121.74907 11036 ft 288 kts 221°
2026-04-22 05:26 47.83734 -121.76904 10816 ft 288 kts 222°
2026-04-22 05:26 47.82250 -121.78909 10719 ft 288 kts 222°
2026-04-22 05:26 47.80782 -121.80928 10710 ft 289 kts 223°
2026-04-22 05:27 47.79306 -121.82982 10734 ft 293 kts 223°
2026-04-22 05:27 47.77805 -121.85052 10544 ft 296 kts 223°
2026-04-22 05:27 47.76306 -121.87105 10294 ft 294 kts 223°
2026-04-22 05:27 47.74815 -121.89130 10049 ft 290 kts 223°
2026-04-22 05:28 47.73327 -121.91168 9778 ft 287 kts 224°
2026-04-22 05:28 47.71874 -121.93167 9539 ft 285 kts 224°
2026-04-22 05:28 47.70423 -121.95164 9314 ft 284 kts 224°
2026-04-22 05:28 47.68981 -121.97146 9076 ft 283 kts 224°
2026-04-22 05:29 47.67553 -121.99102 8818 ft 281 kts 224°
2026-04-22 05:29 47.66120 -122.01082 8559 ft 280 kts 224°
2026-04-22 05:29 47.64698 -122.03036 8301 ft 278 kts 224°
2026-04-22 05:29 47.63295 -122.04959 8047 ft 276 kts 224°
2026-04-22 05:30 47.61889 -122.06873 7797 ft 274 kts 224°
2026-04-22 05:30 47.60466 -122.08784 7536 ft 272 kts 224°
2026-04-22 05:30 47.59069 -122.10628 7283 ft 271 kts 223°
2026-04-22 05:30 47.57668 -122.12447 7029 ft 269 kts 223°
2026-04-22 05:31 47.56451 -122.14514 6726 ft 264 kts 246°
2026-04-22 05:31 47.55975 -122.17089 6481 ft 257 kts 266°
2026-04-22 05:31 47.56162 -122.19642 6212 ft 254 kts 294°
2026-04-22 05:31 47.57172 -122.21746 5952 ft 251 kts 322°
2026-04-22 05:32 47.58695 -122.22939 5725 ft 252 kts 338°
2026-04-22 05:32 47.60312 -122.23920 5512 ft 251 kts 334°
2026-04-22 05:32 47.61906 -122.25000 5265 ft 250 kts 335°
2026-04-22 05:32 47.63490 -122.26064 5029 ft 249 kts 335°
2026-04-22 05:33 47.65051 -122.27129 4775 ft 248 kts 335°
2026-04-22 05:33 47.66605 -122.28191 4527 ft 246 kts 335°
2026-04-22 05:33 47.68144 -122.29234 4251 ft 241 kts 335°
2026-04-22 05:33 47.69653 -122.30261 3974 ft 237 kts 335°
2026-04-22 05:34 47.71126 -122.31272 3675 ft 234 kts 335°
2026-04-22 05:34 47.72592 -122.32274 3413 ft 230 kts 335°
2026-04-22 05:34 47.74044 -122.33266 3141 ft 227 kts 335°
2026-04-22 05:34 47.75465 -122.34248 2803 ft 228 kts 335°
2026-04-22 05:35 47.76907 -122.35265 2446 ft 229 kts 335°
2026-04-22 05:35 47.78251 -122.36445 2227 ft 223 kts 315°
2026-04-22 05:35 47.78952 -122.38339 2307 ft 206 kts 283°
2026-04-22 05:35 47.78796 -122.40472 2322 ft 217 kts 249°
2026-04-22 05:36 47.77823 -122.42209 2313 ft 226 kts 216°
2026-04-22 05:36 47.76326 -122.42950 2306 ft 230 kts 188°
2026-04-22 05:36 47.74730 -122.43125 2301 ft 232 kts 186°
2026-04-22 05:36 47.73107 -122.43349 2243 ft 233 kts 187°
2026-04-22 05:37 47.71501 -122.43536 2198 ft 231 kts 185°
2026-04-22 05:37 47.69910 -122.43688 2176 ft 230 kts 184°
2026-04-22 05:37 47.68302 -122.43739 2145 ft 231 kts 175°
2026-04-22 05:37 47.66830 -122.42918 2114 ft 229 kts 145°
2026-04-22 05:38 47.65540 -122.41523 2161 ft 230 kts 143°
2026-04-22 05:38 47.64216 -122.40157 2177 ft 231 kts 144°
2026-04-22 05:38 47.62899 -122.38804 2176 ft 227 kts 144°
2026-04-22 05:38 47.61643 -122.37508 2044 ft 222 kts 145°
2026-04-22 05:39 47.60366 -122.36288 1667 ft 216 kts 147°
2026-04-22 05:39 47.59114 -122.35220 1490 ft 194 kts 152°
2026-04-22 05:39 47.57965 -122.34361 1188 ft 182 kts 154°
2026-04-22 05:39 47.56881 -122.33531 872 ft 173 kts 151°
2026-04-22 05:40 47.55878 -122.32667 541 ft 163 kts 149°
2026-04-22 05:40 47.54928 -122.31857 245 ft 151 kts 150°
2026-04-22 05:40 47.54040 -122.31122 27 ft 140 kts 150°
2026-04-22 05:40 47.53287 -122.30484 24 ft 101 kts 151°
2026-04-22 05:41 47.52885 -122.30148 22 ft 37 kts 149°
2026-04-22 05:41 47.52707 -122.30022 24 ft 19 kts 175°
2026-04-22 05:41 47.52673 -122.30093 22 ft 8 kts 299°
2026-04-22 05:41 47.52723 -122.30160 21 ft 11 kts 324°
2026-04-22 05:42 47.52787 -122.30218 21 ft 11 kts 330°
2026-04-22 05:42 47.52875 -122.30293 21 ft 16 kts 331°
2026-04-22 05:42 47.52990 -122.30385 21 ft 20 kts 332°
2026-04-22 05:42 47.53131 -122.30505 21 ft 27 kts 328°
2026-04-22 05:43 47.53334 -122.30680 21 ft 38 kts 331°
2026-04-22 05:43 47.53557 -122.30866 21 ft 35 kts 331°
2026-04-22 05:43 47.53764 -122.31041 22 ft 32 kts 330°
2026-04-22 05:43 47.53895 -122.31151 22 ft 3 kts 330°
2026-04-22 05:44 47.53941 -122.31190 23 ft 16 kts 329°
2026-04-22 05:44 47.53944 -122.31339 23 ft 16 kts 247°
2026-04-22 05:44 47.53956 -122.31499 21 ft 15 kts 272°
2026-04-22 05:44 47.53956 -122.31583 21 ft 0 kts 269°
2026-04-22 05:47 47.53956 -122.31571 21 ft 0 kts 269°
2026-04-22 05:47 47.53957 -122.31555 21 ft 2 kts 261°
2026-04-22 05:48 47.53961 -122.31535 21 ft 2 kts 243°
2026-04-22 05:48 47.53968 -122.31517 21 ft 2 kts 230°
2026-04-22 05:48 47.53979 -122.31502 21 ft 2 kts 215°
2026-04-22 05:48 47.53992 -122.31492 21 ft 2 kts 200°
2026-04-22 05:49 47.54007 -122.31486 21 ft 2 kts 185°
2026-04-22 05:49 47.54013 -122.31486 21 ft 1 kts 180°
2026-04-22 05:49 47.54014 -122.31486 21 ft 0 kts 180°